Location: Newark
(35.0033°N, 81.0878°W)
Time: 23:58:03
(UTC+00:00)

Tiangong - Visible Passes

Search period start: 31 July 2021 00:00
Search period end: 10 August 2021 00:00
Orbit: 373 x 386 km, 41.5° (Epoch: 31 July)

Date Brightness Start Highest point End Pass type
(mag) Time Alt. Az. Time Alt. Az. Time Alt. Az.
05 Aug 3.4 09:18:15 13° S 09:19:32 16° SE 09:21:32 10° ESE visible
06 Aug 1.4 09:52:00 13° SW 09:54:37 57° SSE 09:57:43 10° ENE visible
07 Aug 2.5 08:53:33 28° SE 08:53:33 28° SE 08:56:05 10° E visible
08 Aug 1.0 09:27:09 31° WSW 09:28:31 81° NNW 09:31:39 10° ENE visible
09 Aug 3.1 08:28:36 26° E 08:28:36 26° E 08:30:11 10° ENE visible
09 Aug 2.4 10:01:03 10° W 10:03:56 33° NNW 10:06:50 10° NE visible
